FW1508 Weather Reports


time (UTC)temp
F
wind
direction
speed
knots
gust
knots
rain 1hr
in
rain 24hr
in
rain mn
in
humidity
%
barometer
mb
20260509212918 67 284 6.1 14.8 0.00 0.80 0.45 55 1003.0
20260509212418 67 262 6.1 16.5 0.00 0.81 0.45 55 1003.3
20260509211918 67 295 6.1 16.5 0.00 0.81 0.45 55 1003.1
20260509211418 67 274 6.1 13.9 0.00 0.81 0.45 55 1003.0
20260509210919 67 268 6.1 13.9 0.00 0.81 0.45 55 1003.0
20260509210413 66 312 4.3 11.3 0.00 0.81 0.45 56 1003.3
20260509210304 66 294 4.3 13.9 0.00 0.81 0.45 57 1003.6
20260509210153 66 286 3.5 13.9 0.00 0.81 0.45 58 1003.4
20260509204912 66 295 6.1 12.2 0.00 0.81 0.45 60 1003.7
20260509204411 65 5 6.1 15.6 0.00 0.81 0.45 59 1003.7
20260509203912 66 188 7.0 15.6 0.00 0.81 0.45 58 1003.9
20260509203414 67 298 6.1 12.2 0.00 0.81 0.45 58 1003.8
20260509203140 67 278 5.2 12.2 0.00 0.81 0.45 60 1003.8
20260509202410 67 188 4.3 8.7 0.00 0.81 0.45 59 1003.9
20260509201907 67 270 3.5 10.4 0.00 0.81 0.45 59 1003.9
20260509201408 67 207 2.6 10.4 0.00 0.81 0.45 59 1004.1
20260509200909 67 260 3.5 13.0 0.00 0.81 0.45 60 1004.0
20260509200410 67 251 4.3 13.0 0.00 0.81 0.45 59 1004.1
20260509195907 67 254 4.3 12.2 0.00 0.81 0.45 60 1004.1
20260509195401 66 288 5.2 12.2 0.00 0.81 0.45 61 1004.2
20260509194902 66 259 5.2 11.3 0.00 0.81 0.45 62 1004.2
20260509194402 65 226 5.2 11.3 0.00 0.81 0.45 62 1004.3
20260509194134 65 298 4.3 12.2 0.00 0.81 0.45 64 1004.3
20260509193404 65 296 4.3 12.2 0.00 0.81 0.45 65 1004.3
20260509192902 65 293 4.3 11.3 0.00 0.81 0.45 66 1004.4
20260509192402 64 261 3.5 9.6 0.00 0.81 0.45 67 1004.6
20260509191855 63 213 3.5 9.6 0.00 0.81 0.45 69 1004.6
20260509191357 63 300 2.6 10.4 0.00 0.81 0.45 69 1004.8
20260509190856 63 255 3.5 11.3 0.00 0.81 0.45 70 1004.9
20260509190351 63 232 3.5 11.3 0.00 0.81 0.45 70 1004.8
20260509185852 63 266 3.5 9.6 0.00 0.81 0.45 72 1004.8
20260509185352 63 296 3.5 8.7 0.00 0.81 0.45 73 1004.7
20260509184851 62 293 2.6 8.7 0.00 0.81 0.45 74 1004.8
20260509184350 62 302 1.7 7.0 0.00 0.81 0.45 76 1004.8
20260509183851 61 306 0.9 7.0 0.00 0.81 0.45 78 1004.8
20260509183349 61 306 0.9 7.8 0.00 0.81 0.45 78 1004.9
20260509182846 60 306 1.7 7.8 0.00 0.81 0.45 78 1004.9
20260509182343 60 306 2.6 12.2 0.00 0.81 0.45 78 1004.9
20260509181838 60 327 1.7 12.2 0.00 0.81 0.45 80 1005.0
20260509181338 60 225 1.7 7.0 0.00 0.81 0.45 81 1005.1
20260509181108 60 220 1.7 7.0 0.00 0.81 0.45 81 1005.1
20260509180337 59 211 1.7 7.0 0.00 0.81 0.45 83 1005.2
20260509180110 59 213 1.7 7.0 0.00 0.81 0.45 82 1005.2
20260509175339 59 102 0.9 6.1 0.00 0.81 0.45 85 1005.2
20260509174834 58 102 1.7 7.0 0.00 0.81 0.45 84 1005.3
20260509174333 58 91 1.7 7.0 0.00 0.81 0.45 86 1005.4
20260509173833 57 226 1.7 6.1 0.00 0.81 0.45 87 1005.4
20260509173332 57 226 0.9 5.2 0.00 0.81 0.45 89 1005.6
20260509172832 56 226 0.9 4.3 0.00 0.81 0.45 89 1005.6
20260509172332 56 226 0.9 4.3 0.00 0.81 0.45 89 1005.6
20260509172058 56 226 0.9 4.3 0.00 0.81 0.45 90 1005.6
20260509171329 56 226 0.9 4.3 0.00 0.81 0.45 91 1005.7
20260509171058 55 226 0.9 4.3 0.00 0.81 0.45 91 1005.7
20260509170328 55 226 0.0 0.9 0.00 0.81 0.45 91 1005.8
20260509165827 55 226 0.0 1.7 0.00 0.81 0.45 92 1005.8
20260509165326 55 226 0.9 2.6 0.00 0.81 0.45 92 1005.7
20260509164822 55 226 0.9 6.1 0.00 0.81 0.45 92 1005.8
20260509164321 55 226 0.9 6.1 0.00 0.81 0.45 93 1005.7
20260509163821 55 226 0.9 4.3 0.00 0.81 0.45 94 1005.8
20260509163321 54 226 0.9 2.6 0.00 0.81 0.45 94 1005.8
20260509162820 54 226 0.9 2.6 0.00 0.81 0.45 95 1005.7
20260509162322 53 226 0.0 2.6 0.00 0.81 0.45 95 1005.7
20260509161817 53 226 0.0 1.7 0.00 0.81 0.45 94 1005.8
20260509161316 53 226 0.0 0.9 0.00 0.81 0.45 95 1005.7
20260509160818 52 226 0.0 2.6 0.00 0.81 0.45 95 1005.7
20260509160316 52 226 0.0 2.6 0.00 0.81 0.45 94 1005.7
20260509160047 52 226 0.0 0.9 0.00 0.81 0.45 94 1005.6
20260509155545 52 226 0.0 0.9 0.00 0.81 0.45 94 1005.6
20260509154811 52 226 0.0 0.9 0.00 0.81 0.45 95 1005.6
20260509154309 52 226 0.0 0.9 0.00 0.81 0.45 95 1005.6
20260509153810 52 226 0.0 0.9 0.00 0.81 0.45 95 1005.5
20260509153311 52 226 0.0 0.0 0.00 0.81 0.45 95 1005.6
20260509152810 52 226 0.0 0.0 0.00 0.81 0.45 95 1005.5
20260509152308 52 226 0.0 0.9 0.00 0.81 0.45 95 1005.7
20260509152038 51 226 0.0 0.9 0.00 0.81 0.45 95 1005.6
20260509151306 51 226 0.0 0.9 0.00 0.81 0.45 95 1005.6
20260509150806 51 226 0.0 0.0 0.00 0.81 0.45 95 1005.6
20260509150304 51 226 0.0 0.0 0.00 0.81 0.45 95 1005.6
20260509145803 51 226 0.0 0.0 0.01 0.81 0.45 95 1005.7
20260509145306 51 226 0.0 0.0 0.02 0.81 0.45 95 1005.7
20260509145026 51 226 0.0 0.0 0.03 0.81 0.45 95 1005.6
20260509144526 51 226 0.0 0.0 0.03 0.81 0.45 95 1005.7
20260509143752 51 226 0.0 0.0 0.03 0.81 0.45 95 1005.6
20260509143251 51 226 0.0 0.9 0.03 0.81 0.45 95 1005.7
20260509143023 51 226 0.0 0.9 0.03 0.81 0.45 95 1005.7
20260509142519 51 226 0.0 0.9 0.03 0.81 0.45 95 1005.6
20260509141746 51 226 0.0 0.9 0.03 0.81 0.45 95 1005.6
20260509141246 50 226 0.0 0.9 0.03 0.81 0.45 95 1005.5
20260509141018 50 226 0.0 0.0 0.03 0.81 0.45 95 1005.7
20260509140251 50 226 0.0 0.9 0.02 0.80 0.44 95 1005.7
20260509140246 50 226 0.0 0.0 0.02 0.80 0.44 95 1005.7
20260509135242 50 226 0.0 0.9 0.01 0.79 0.43 95 1005.8
20260509134741 50 226 0.0 0.9 0.00 0.78 0.42 95 1005.8
20260509134241 50 226 0.0 0.9 0.00 0.78 0.42 95 1005.8
20260509133740 50 226 0.0 0.9 0.00 0.78 0.42 95 1005.8
20260509133239 50 226 0.0 0.9 0.00 0.78 0.42 95 1005.9
20260509132738 50 226 0.0 0.9 0.00 0.78 0.42 95 1005.9
20260509132237 50 226 0.0 0.9 0.00 0.78 0.42 95 1005.9
20260509131733 50 226 0.0 0.9 0.00 0.78 0.42 95 1005.8
20260509131232 50 226 0.0 0.9 0.00 0.78 0.42 95 1005.9
20260509130730 49 226 0.0 0.9 0.00 0.78 0.42 95 1005.8
20260509130228 49 226 0.0 0.9 0.01 0.78 0.42 95 1005.7
20260509125959 49 226 0.0 0.9 0.01 0.78 0.42 95 1005.7
20260509125222 49 226 0.0 0.0 0.01 0.78 0.42 95 1005.7
20260509124721 49 226 0.0 0.0 0.01 0.78 0.42 95 1005.8
20260509124221 49 226 0.0 0.0 0.01 0.78 0.42 95 1006.0
20260509123722 49 226 0.0 0.0 0.01 0.78 0.42 95 1006.0
20260509123222 49 226 0.0 0.0 0.01 0.78 0.42 95 1006.1
20260509122955 49 226 0.0 0.0 0.01 0.78 0.42 95 1006.2
20260509122216 49 226 0.0 0.0 0.01 0.78 0.42 95 1006.2
20260509121945 49 226 0.0 0.0 0.01 0.78 0.42 95 1006.2
20260509121212 49 226 0.0 0.0 0.01 0.78 0.42 95 1006.2
20260509120710 49 226 0.0 0.0 0.01 0.78 0.42 95 1006.3
20260509120212 49 226 0.0 0.0 0.00 0.77 0.41 95 1006.2
20260509115708 49 226 0.0 0.0 0.00 0.77 0.41 95 1006.2
20260509115211 49 226 0.0 0.0 0.01 0.77 0.41 95 1006.2
20260509115206 49 226 0.0 0.0 0.01 0.77 0.41 95 1006.2
20260509114205 49 226 0.0 0.0 0.01 0.77 0.41 95 1006.2
20260509113935 49 226 0.0 0.0 0.01 0.77 0.41 95 1006.1
20260509113204 49 226 0.0 0.0 0.01 0.77 0.41 95 1006.1
20260509112929 49 226 0.0 0.0 0.01 0.77 0.41 95 1006.1
20260509112155 49 226 0.0 0.0 0.01 0.77 0.41 95 1006.2
20260509111654 49 226 0.0 0.0 0.02 0.77 0.41 95 1006.2
20260509111152 49 226 0.0 0.0 0.03 0.77 0.41 95 1006.2
20260509110652 49 226 0.0 0.0 0.04 0.77 0.41 95 1006.3
20260509110422 49 226 0.0 0.0 0.04 0.77 0.41 95 1006.2
20260509105648 49 226 0.0 0.0 0.04 0.76 0.41 95 1006.2
20260509105148 49 226 0.0 0.9 0.05 0.76 0.40 95 1006.2
20260509104648 49 226 0.0 0.9 0.05 0.76 0.40 95 1006.3
20260509104146 49 226 0.0 1.7 0.06 0.76 0.40 95 1006.2
20260509103646 49 226 0.0 1.7 0.06 0.76 0.40 95 1006.3
20260509103140 48 226 0.0 0.9 0.07 0.76 0.40 95 1006.2
20260509102637 48 226 0.0 0.0 0.08 0.76 0.40 95 1006.4
20260509102137 48 226 0.0 0.0 0.08 0.76 0.40 95 1006.3
20260509101634 48 226 0.0 0.0 0.08 0.75 0.39 95 1006.2
20260509101133 48 226 0.0 0.0 0.08 0.74 0.38 95 1006.3
20260509100633 48 226 0.0 0.0 0.07 0.73 0.38 95 1006.3
20260509100130 48 226 0.0 0.0 0.06 0.72 0.37 95 1006.3
20260509095626 48 226 0.0 0.0 0.07 0.72 0.36 95 1006.4
20260509095128 48 226 0.0 0.0 0.06 0.71 0.35 95 1006.4
20260509094628 48 226 0.0 0.0 0.08 0.71 0.35 95 1006.4
20260509094130 48 226 0.0 0.0 0.09 0.70 0.34 95 1006.3
20260509093621 48 226 0.0 0.0 0.11 0.70 0.34 95 1006.6
20260509093121 48 226 0.0 0.0 0.11 0.69 0.33 94 1006.7
20260509092618 48 226 0.0 0.0 0.11 0.68 0.32 94 1006.7
20260509092116 48 226 0.0 0.0 0.13 0.68 0.32 94 1006.7
20260509091617 48 226 0.0 0.0 0.13 0.67 0.31 94 1006.7
20260509091110 48 226 0.0 0.0 0.13 0.66 0.30 94 1006.7
20260509090610 48 226 0.0 0.0 0.14 0.66 0.30 94 1006.7
20260509090108 48 226 0.0 0.0 0.14 0.66 0.30 94 1006.6
20260509085839 48 226 0.0 0.0 0.14 0.65 0.29 94 1006.7
20260509085106 48 226 0.0 0.0 0.14 0.65 0.29 94 1006.8
20260509084839 48 226 0.0 0.9 0.13 0.63 0.27 94 1006.9
20260509084332 48 226 0.0 0.9 0.11 0.61 0.25 94 1006.9
20260509083600 48 226 0.0 3.5 0.09 0.59 0.23 94 1006.9
20260509083058 48 226 0.0 3.5 0.09 0.58 0.22 94 1006.9
20260509082559 48 226 0.0 2.6 0.08 0.57 0.21 94 1006.8
20260509082056 48 226 0.0 1.7 0.07 0.56 0.20 94 1006.8
20260509081554 48 226 0.0 1.7 0.06 0.55 0.18 94 1006.8
20260509081052 48 226 0.0 1.7 0.05 0.54 0.17 94 1006.9
20260509080552 48 226 0.0 2.6 0.04 0.53 0.16 94 1006.8
20260509080050 48 226 0.0 2.6 0.05 0.53 0.16 94 1006.8
20260509075550 48 226 0.0 0.9 0.04 0.52 0.15 94 1006.7
20260509075048 48 226 0.0 0.9 0.04 0.52 0.15 94 1006.8
20260509074545 48 226 0.0 0.9 0.03 0.51 0.14 94 1006.8
20260509074046 48 226 0.0 0.9 0.04 0.51 0.14 94 1006.9
20260509073042 48 226 0.0 0.0 0.04 0.50 0.13 94 1006.9
20260509072542 48 226 0.0 0.0 0.04 0.50 0.13 94 1006.9
20260509072040 48 226 0.0 0.0 0.03 0.49 0.12 94 1007.0
20260509071538 48 226 0.0 0.0 0.03 0.49 0.12 94 1007.0
20260509071035 48 226 0.0 0.0 0.04 0.49 0.12 94 1006.9
20260509070536 48 226 0.0 0.0 0.03 0.48 0.12 94 1006.9
20260509070308 48 226 0.0 0.9 0.03 0.48 0.11 94 1007.1
20260509065538 48 226 0.0 0.9 0.03 0.48 0.11 94 1007.1
20260509065034 48 226 0.0 0.0 0.03 0.48 0.11 94 1007.1
20260509064537 48 226 0.0 0.0 0.04 0.48 0.11 94 1007.0
20260509064529 48 226 0.0 0.0 0.03 0.47 0.10 94 1007.1
20260509063757 48 226 0.0 0.9 0.03 0.47 0.10 94 1007.2
20260509063025 48 226 0.0 0.9 0.03 0.46 0.09 94 1007.4
20260509062528 48 226 0.0 0.0 0.03 0.46 0.09 94 1007.6
20260509062025 48 226 0.0 0.0 0.04 0.46 0.09 94 1007.7
20260509061524 48 226 0.0 0.0 0.04 0.46 0.09 94 1007.7
20260509061026 48 226 0.0 0.0 0.04 0.45 0.08 94 1007.7
20260509060521 48 226 0.0 0.0 0.04 0.45 0.08 94 1007.8
20260509060021 48 226 0.0 0.0 0.05 0.45 0.08 94 1007.8
20260509055522 48 226 0.0 0.0 0.05 0.45 0.08 94 1007.6
20260509055021 48 226 0.0 0.0 0.06 0.45 0.08 94 1007.8
20260509054521 48 226 0.0 0.0 0.05 0.44 0.07 94 1007.9
20260509054022 48 226 0.0 0.0 0.05 0.44 0.07 94 1007.9
20260509053516 48 226 0.0 0.0 0.06 0.44 0.07 94 1008.1
20260509053248 48 226 0.0 0.0 0.05 0.43 0.06 94 1008.2
20260509052748 48 226 0.0 0.0 0.05 0.43 0.06 94 1008.2
20260509052016 48 226 0.0 0.0 0.04 0.42 0.05 94 1008.4
20260509051517 48 226 0.0 0.0 0.04 0.42 0.05 94 1008.6
20260509051018 48 226 0.0 0.0 0.03 0.41 0.04 94 1008.6
20260509050512 48 226 0.0 0.0 0.03 0.41 0.04 94 1008.6
20260509050013 48 226 0.0 0.0 0.03 0.40 0.03 94 1008.7
20260509045744 48 226 0.0 0.9 0.03 0.40 0.03 94 1008.8
20260509045012 48 226 0.0 0.9 0.02 0.39 0.02 94 1008.7
20260509044514 48 226 0.0 0.0 0.02 0.39 0.02 94 1008.7
20260509044015 48 226 0.0 0.9 0.03 0.39 0.02 94 1008.7
20260509043509 48 226 0.0 0.9 0.03 0.38 0.01 94 1008.8
20260509043010 48 226 0.0 0.9 0.03 0.38 0.01 93 1008.8
20260509042509 48 226 0.0 0.9 0.03 0.38 0.01 93 1008.8
20260509042008 48 226 0.0 0.9 0.04 0.38 0.01 93 1008.9
20260509041508 48 226 0.0 0.9 0.04 0.38 0.01 93 1009.0
20260509041010 48 226 0.0 0.9 0.05 0.38 0.01 93 1009.1
20260509040741 48 226 0.0 0.9 0.06 0.38 0.01 98 1009.0
20260509040006 48 226 0.0 0.0 0.06 0.37 0.00 94 1009.1
20260509035506 48 226 0.0 0.9 0.06 0.37 0.37 94 1009.1
20260509035003 48 226 0.0 0.9 0.07 0.37 0.37 93 1009.1
20260509034735 48 226 0.0 0.9 0.08 0.37 0.37 93 1009.1
20260509034003 48 226 0.0 0.9 0.08 0.36 0.36 93 1009.1
20260509033502 48 226 0.0 1.7 0.08 0.35 0.35 93 1009.2
20260509032959 48 226 0.0 1.7 0.09 0.35 0.35 93 1009.3
20260509032459 48 226 0.0 1.7 0.09 0.35 0.35 93 1009.3
20260509032001 48 226 0.0 0.9 0.09 0.34 0.34 93 1009.4
20260509031725 48 226 0.0 0.9 0.09 0.34 0.34 93 1009.4
20260509031223 48 226 0.0 0.9 0.09 0.33 0.33 93 1009.3
20260509030451 48 226 0.0 0.9 0.08 0.32 0.32 93 1009.5
20260509025952 48 226 0.0 0.9 0.08 0.31 0.31 93 1009.5
20260509025451 49 226 0.0 0.9 0.09 0.31 0.31 93 1009.5
20260509025223 49 226 0.0 0.9 0.08 0.30 0.30 93 1009.5
20260509024451 49 226 0.0 0.9 0.08 0.29 0.29 93 1009.5
20260509023948 49 226 0.0 1.7 0.08 0.28 0.28 93 1009.6
20260509023450 49 226 0.0 1.7 0.08 0.27 0.27 93 1009.7
20260509022950 49 226 0.0 0.9 0.08 0.26 0.27 93 1009.7
20260509022451 48 226 0.0 0.9 0.09 0.25 0.25 93 1009.9
20260509022446 49 226 0.0 0.9 0.09 0.26 0.26 93 1009.9
20260509021443 48 226 0.0 0.0 0.09 0.25 0.25 93 1009.6
20260509020943 48 226 0.0 0.9 0.09 0.24 0.24 93 1009.6
20260509020445 49 226 0.0 0.9 0.08 0.23 0.24 93 1009.6
20260509015943 49 226 0.0 0.0 0.09 0.23 0.23 93 1009.5
20260509015440 49 226 0.0 0.0 0.08 0.22 0.23 93 1009.5
20260509014942 49 226 0.0 0.0 0.09 0.22 0.22 93 1009.3
20260509014434 49 226 0.0 0.0 0.08 0.21 0.22 93 1009.3
20260509013931 49 226 0.0 0.0 0.08 0.20 0.20 92 1009.3
20260509013430 49 226 0.0 0.0 0.08 0.19 0.19 92 1009.4
20260509012928 49 226 0.0 0.0 0.07 0.18 0.18 92 1009.3
20260509012430 49 226 0.0 0.0 0.07 0.17 0.17 92 1009.1
20260509012423 49 226 0.0 0.0 0.07 0.16 0.16 92 1009.1
20260509011424 49 226 0.0 0.0 0.08 0.16 0.16 92 1009.1
20260509010922 49 226 0.0 0.0 0.08 0.15 0.15 92 1009.0
20260509010423 49 226 0.0 0.0 0.09 0.15 0.15 92 1008.9
20260509010151 49 226 0.0 0.0 0.09 0.14 0.14 91 1008.9
20260509005421 49 226 0.0 0.0 0.10 0.14 0.14 91 1008.9
20260509004919 49 226 0.0 0.0 0.10 0.13 0.13 91 1008.8
20260509004417 49 226 0.0 0.0 0.10 0.13 0.13 90 1008.8
20260509003917 49 226 0.0 0.0 0.10 0.12 0.12 90 1008.6
20260509003417 49 226 0.0 0.0 0.09 0.11 0.11 90 1008.7
20260509002917 49 226 0.0 0.9 0.08 0.10 0.11 89 1008.8
20260509002415 50 226 0.0 0.9 0.08 0.10 0.10 88 1009.0
20260509001914 50 226 0.0 2.6 0.07 0.09 0.09 87 1009.1
20260509001411 51 226 0.0 2.6 0.06 0.08 0.08 86 1009.0
20260509000912 51 226 0.9 4.3 0.05 0.07 0.07 84 1009.0
20260509000644 51 226 0.0 4.3 0.04 0.06 0.06 83 1009.0
20260508235908 52 226 0.0 0.9 0.03 0.05 0.05 81 1008.9
20260508235637 53 226 0.0 3.5 0.02 0.04 0.04 79 1008.7
20260508234906 53 226 0.0 3.5 0.01 0.03 0.03 77 1008.7
20260508234400 53 226 0.0 3.5 0.01 0.03 0.03 75 1008.6
20260508233859 54 226 0.0 3.5 0.00 0.02 0.02 74 1008.3
20260508233356 54 226 0.9 3.5 0.00 0.02 0.02 73 1008.2
20260508232855 54 226 0.9 3.5 0.00 0.02 0.02 70 1008.4
20260508232355 55 226 0.9 8.7 0.00 0.02 0.02 71 1008.4
20260508231849 55 229 0.9 8.7 0.00 0.02 0.02 69 1008.3
20260508231347 55 252 1.7 7.8 0.00 0.02 0.02 70 1008.2
20260508231116 55 251 1.7 7.8 0.00 0.02 0.02 70 1008.1
20260508230344 55 259 0.9 6.1 0.00 0.02 0.02 70 1008.0
20260508225841 55 264 1.7 7.0 0.00 0.02 0.02 71 1008.1
20260508225336 55 265 1.7 7.0 0.00 0.02 0.02 70 1008.2
20260508224837 55 265 1.7 7.8 0.00 0.02 0.02 71 1008.3
20260508224334 55 264 0.9 7.8 0.00 0.02 0.02 71 1008.2
20260508223834 55 260 1.7 8.7 0.00 0.02 0.02 72 1008.2
20260508223333 55 261 2.6 8.7 0.00 0.02 0.02 71 1008.1
20260508223104 55 243 2.6 8.7 0.00 0.02 0.02 72 1008.1
20260508222331 55 228 2.6 8.7 0.01 0.02 0.02 72 1008.1
20260508221829 55 131 1.7 7.8 0.01 0.02 0.02 72 1008.1
20260508221331 55 236 1.7 8.7 0.01 0.02 0.02 73 1008.1
20260508220829 55 290 1.7 8.7 0.01 0.02 0.02 73 1008.1
20260508220331 55 231 1.7 5.2 0.01 0.02 0.02 74 1008.2
20260508215831 55 236 2.6 11.3 0.01 0.02 0.02 74 1008.1
20260508215330 55 265 2.6 11.3 0.01 0.02 0.02 75 1008.0
20260508214825 55 259 2.6 10.4 0.01 0.02 0.02 75 1007.9
20260508214324 55 262 0.9 8.7 0.01 0.02 0.02 76 1008.0
20260508213825 55 263 0.9 6.1 0.01 0.02 0.02 78 1008.0
20260508213325 55 263 0.9 6.1 0.01 0.02 0.02 78 1008.0